contact:dominique.lefevre@mio.osupytheas.fr, maurice.libes@osupytheas.fr, didier.mallarino@osupytheas.fr
Project:EMSO http://www.emso-fr.org/EMSO-France
Depth: 2436.0 m
Title:EMSO Ligure Ouest : Data MII capteur AQUADOPP
Date,Latitude,Longitude,X_East,Y_North,Z_Up,Amplitude_X,Amplitude_Y,Amplitude_Z,Batterie,SoundSpeed,Heading,Pitch,Roll,Pressure,TIS,Speed,Direction
, degrees North, degrees East, m.s-1, m.s-1,m.s-1, 1, 1, 1, Volt, m.s-1, degree, degree, degree, dbar, degree_C, m.s-1, degree
2020-09-17T00:04:03,42.805,6.029,0.076,-0.023,0.027,104.0,106.0,100.0,13.4,1505.2,327.9,-0.7,1.8,2470.362,13.3,0.079,106.8
2020-09-17T00:07:03,42.805,6.029,0.058,-0.042,-0.014,103.0,105.0,101.0,13.3,1505.3,327.6,-0.7,1.8,2470.341,13.31,0.071,125.9
2020-09-17T00:10:03,42.805,6.029,0.055,-0.009,-0.016,103.0,104.0,102.0,13.4,1505.3,323.7,-0.7,1.8,2470.32,13.31,0.055,99.3
2020-09-17T00:13:03,42.805,6.029,0.059,-0.014,-0.017,103.0,104.0,100.0,13.4,1505.3,328.4,-0.7,1.8,2470.333,13.32,0.06,103.3
2020-09-17T00:16:03,42.805,6.029,0.058,-0.023,-0.017,103.0,104.0,101.0,13.3,1505.3,326.3,-0.7,1.8,2470.316,13.32,0.062,111.6
2020-09-17T00:19:03,42.805,6.029,0.056,-0.031,-0.008,103.0,104.0,101.0,13.4,1505.3,326.0,-0.7,1.8,2470.342,13.32,0.064,119.0
2020-09-17T00:22:03,42.805,6.029,0.048,-0.004,0.034,103.0,106.0,102.0,13.3,1505.3,324.9,-0.7,1.8,2470.279,13.32,0.048,94.8
2020-09-17T00:25:03,42.805,6.029,0.076,-0.026,0.012,103.0,105.0,101.0,13.4,1505.3,326.5,-0.6,1.8,2470.27,13.32,0.08,108.9
2020-09-17T00:28:03,42.805,6.029,0.05,-0.006,0.002,103.0,105.0,101.0,13.4,1505.3,323.7,-0.7,1.8,2470.28,13.32,0.05,96.8
2020-09-17T00:31:03,42.805,6.029,0.047,-0.02,-0.016,102.0,104.0,101.0,13.4,1505.3,328.2,-0.7,1.8,2470.271,13.32,0.051,113.0
2020-09-17T00:34:03,42.805,6.029,0.057,-0.009,-0.007,104.0,106.0,102.0,13.4,1505.3,326.4,-0.7,1.8,2470.267,13.32,0.057,99.0
2020-09-17T00:37:03,42.805,6.029,0.072,-0.022,0.0,103.0,105.0,101.0,13.4,1505.3,324.6,-0.7,1.9,2470.269,13.32,0.075,107.0
2020-09-17T00:40:03,42.805,6.029,0.077,-0.033,-0.016,104.0,103.0,101.0,13.4,1505.3,326.1,-0.7,1.8,2470.283,13.32,0.083,113.2
2020-09-17T00:43:03,42.805,6.029,0.039,-0.016,0.0,103.0,106.0,100.0,13.3,1505.3,324.3,-0.7,1.8,2470.287,13.32,0.042,112.3
2020-09-17T00:46:03,42.805,6.029,0.05,-0.02,-0.005,103.0,104.0,102.0,13.4,1505.3,323.9,-0.7,1.8,2470.251,13.32,0.053,111.8
2020-09-17T00:49:03,42.805,6.029,0.035,-0.023,-0.016,104.0,105.0,101.0,13.4,1505.3,322.8,-0.7,1.8,2470.254,13.32,0.041,123.3
2020-09-17T00:52:03,42.805,6.029,0.067,-0.015,0.002,103.0,104.0,101.0,13.4,1505.3,326.1,-0.7,1.9,2470.243,13.32,0.068,102.6
2020-09-17T00:55:03,42.805,6.029,0.056,-0.016,-0.011,103.0,105.0,101.0,13.4,1505.3,326.2,-0.7,1.9,2470.282,13.32,0.058,105.9
2020-09-17T00:58:03,42.805,6.029,0.059,-0.012,0.008,103.0,104.0,103.0,13.3,1505.3,323.0,-0.7,1.8,2470.305,13.32,0.06,101.5
2020-09-17T01:04:03,42.805,6.029,0.046,-0.014,0.014,103.0,106.0,103.0,13.4,1505.2,324.6,-0.8,1.8,2470.325,13.3,0.048,106.9
2020-09-17T01:07:04,42.805,6.029,0.053,-0.015,0.004,103.0,103.0,101.0,13.4,1505.3,327.2,-0.7,1.9,2470.301,13.31,0.055,105.8
2020-09-17T01:10:03,42.805,6.029,0.072,-0.02,0.02,104.0,107.0,101.0,13.4,1505.3,323.1,-0.7,1.8,2470.255,13.31,0.074,105.5
2020-09-17T01:13:03,42.805,6.029,0.059,-0.026,-0.014,103.0,105.0,101.0,13.4,1505.3,324.4,-0.7,1.9,2470.249,13.32,0.064,113.8
2020-09-17T01:16:05,42.805,6.029,0.02,-0.04,-0.031,102.0,104.0,102.0,13.3,1505.3,327.8,-0.7,1.8,2470.285,13.32,0.044,153.4
2020-09-17T01:19:03,42.805,6.029,0.056,-0.014,0.017,103.0,106.0,101.0,13.3,1505.3,323.4,-0.7,1.8,2470.275,13.32,0.057,104.0
2020-09-17T01:22:04,42.805,6.029,0.068,-0.024,0.005,104.0,105.0,102.0,13.4,1505.3,325.2,-0.7,1.9,2470.259,13.32,0.072,109.4
2020-09-17T01:25:03,42.805,6.029,0.077,-0.031,-0.015,103.0,105.0,100.0,13.3,1505.3,325.9,-0.7,1.8,2470.242,13.32,0.083,111.9
2020-09-17T01:28:03,42.805,6.029,0.07,-0.03,0.005,104.0,105.0,100.0,13.4,1505.3,325.4,-0.7,1.8,2470.237,13.32,0.076,113.2
2020-09-17T01:31:04,42.805,6.029,0.069,-0.019,0.0,103.0,107.0,101.0,13.4,1505.3,327.0,-0.7,1.8,2470.296,13.32,0.071,105.4
2020-09-17T01:34:03,42.805,6.029,0.049,-0.032,-0.017,104.0,105.0,100.0,13.4,1505.3,326.9,-0.7,1.8,2470.268,13.32,0.058,123.2
2020-09-17T01:37:03,42.805,6.029,0.049,0.001,-0.017,103.0,105.0,101.0,13.4,1505.3,323.2,-0.7,1.8,2470.244,13.32,0.049,88.8
2020-09-17T01:40:03,42.805,6.029,0.076,-0.023,0.0,103.0,103.0,101.0,13.4,1505.3,326.4,-0.7,1.9,2470.264,13.32,0.079,106.8
2020-09-17T01:43:03,42.805,6.029,0.059,-0.02,0.024,104.0,105.0,101.0,13.4,1505.3,326.6,-0.7,1.9,2470.265,13.32,0.062,108.7
2020-09-17T01:46:03,42.805,6.029,0.062,-0.018,-0.001,104.0,104.0,100.0,13.4,1505.3,326.5,-0.7,1.8,2470.254,13.32,0.064,106.2
2020-09-17T01:49:03,42.805,6.029,0.043,-0.017,-0.017,103.0,107.0,101.0,13.4,1505.3,327.1,-0.7,1.8,2470.248,13.32,0.046,111.6
2020-09-17T01:52:03,42.805,6.029,0.051,-0.014,0.008,103.0,106.0,101.0,13.4,1505.3,323.5,-0.7,1.9,2470.222,13.32,0.052,105.3
2020-09-17T01:55:03,42.805,6.029,0.072,-0.024,0.009,102.0,106.0,100.0,13.4,1505.3,324.1,-0.7,1.8,2470.263,13.32,0.075,108.4
2020-09-17T01:58:03,42.805,6.029,0.066,-0.029,0.002,103.0,105.0,100.0,13.4,1505.3,325.8,-0.7,1.8,2470.261,13.32,0.072,113.7
2020-09-17T02:04:03,42.805,6.029,0.057,-0.032,-0.015,102.0,105.0,102.0,13.4,1505.2,322.7,-0.7,1.8,2470.316,13.3,0.065,119.3
2020-09-17T02:07:03,42.805,6.029,0.068,-0.043,-0.002,104.0,107.0,102.0,13.4,1505.3,325.4,-0.7,1.8,2470.253,13.31,0.08,122.3
2020-09-17T02:10:03,42.805,6.029,0.066,-0.018,0.018,105.0,104.0,101.0,13.4,1505.3,324.1,-0.7,1.9,2470.244,13.31,0.068,105.3
2020-09-17T02:13:03,42.805,6.029,0.059,-0.008,0.0,105.0,107.0,101.0,13.4,1505.3,324.7,-0.7,1.8,2470.271,13.32,0.059,97.7
2020-09-17T02:16:03,42.805,6.029,0.061,-0.019,-0.005,103.0,105.0,101.0,13.3,1505.3,324.7,-0.7,1.8,2470.268,13.32,0.063,107.3
2020-09-17T02:19:03,42.805,6.029,0.073,-0.032,-0.012,103.0,106.0,102.0,13.3,1505.3,328.2,-0.7,1.8,2470.275,13.32,0.079,113.7
2020-09-17T02:22:03,42.805,6.029,0.068,-0.024,0.005,105.0,105.0,101.0,13.4,1505.3,326.1,-0.7,1.8,2470.271,13.32,0.072,109.4
2020-09-17T02:25:03,42.805,6.029,0.072,-0.012,0.011,105.0,107.0,99.0,13.4,1505.3,322.5,-0.7,1.8,2470.315,13.32,0.072,99.5
2020-09-17T02:28:03,42.805,6.029,0.066,-0.023,0.008,103.0,105.0,101.0,13.3,1505.3,323.2,-0.7,1.8,2470.276,13.32,0.069,109.2
2020-09-17T02:31:03,42.805,6.029,0.069,-0.014,0.007,104.0,104.0,101.0,13.3,1505.3,322.9,-0.7,1.8,2470.274,13.32,0.07,101.5
2020-09-17T02:34:03,42.805,6.029,0.068,-0.026,0.005,103.0,104.0,101.0,13.3,1505.3,323.3,-0.7,1.8,2470.261,13.32,0.072,110.9
2020-09-17T02:37:03,42.805,6.029,0.075,-0.023,0.031,103.0,104.0,101.0,13.3,1505.3,327.8,-0.7,1.8,2470.213,13.32,0.078,107.0
2020-09-17T02:40:03,42.805,6.029,0.057,-0.028,-0.007,105.0,105.0,101.0,13.4,1505.3,326.3,-0.7,1.8,2470.271,13.32,0.063,116.2
2020-09-17T02:43:04,42.805,6.029,0.069,-0.023,0.011,104.0,105.0,102.0,13.4,1505.3,324.7,-0.7,1.9,2470.307,13.32,0.072,108.4
2020-09-17T02:46:06,42.805,6.029,0.061,-0.019,-0.015,103.0,105.0,101.0,13.4,1505.3,326.8,-0.7,1.8,2470.26,13.32,0.063,107.3
2020-09-17T02:49:03,42.805,6.029,0.075,-0.009,0.014,104.0,104.0,100.0,13.4,1505.3,326.3,-0.7,1.8,2470.234,13.32,0.075,96.8
2020-09-17T02:52:03,42.805,6.029,0.066,-0.028,-0.014,105.0,106.0,102.0,13.3,1505.3,324.2,-0.7,1.8,2470.266,13.32,0.071,113.0
2020-09-17T02:55:03,42.805,6.029,0.052,-0.025,0.003,105.0,104.0,101.0,13.4,1505.3,324.3,-0.7,1.8,2470.219,13.32,0.057,115.7
2020-09-17T02:58:03,42.805,6.029,0.075,-0.035,0.001,103.0,105.0,102.0,13.4,1505.3,326.3,-0.7,1.8,2470.262,13.32,0.082,115.0
2020-09-17T03:04:03,42.805,6.029,0.057,-0.027,-0.013,103.0,105.0,101.0,13.4,1505.2,323.2,-0.7,1.8,2470.316,13.3,0.063,115.3
2020-09-17T03:07:03,42.805,6.029,0.082,-0.039,0.0,104.0,105.0,101.0,13.4,1505.3,326.5,-0.7,1.8,2470.321,13.31,0.09,115.4
2020-09-17T03:10:03,42.805,6.029,0.083,-0.049,-0.013,104.0,103.0,101.0,13.4,1505.3,327.9,-0.7,1.8,2470.307,13.31,0.096,120.6
2020-09-17T03:13:03,42.805,6.029,0.06,-0.023,-0.007,103.0,105.0,101.0,13.4,1505.3,328.0,-0.7,1.8,2470.269,13.32,0.064,111.0
2020-09-17T03:16:03,42.805,6.029,0.052,-0.01,0.008,104.0,105.0,102.0,13.4,1505.3,324.2,-0.7,1.8,2470.292,13.32,0.052,100.9
2020-09-17T03:19:04,42.805,6.029,0.096,-0.037,0.0,103.0,103.0,101.0,13.4,1505.3,325.1,-0.7,1.8,2470.282,13.32,0.102,111.1
2020-09-17T03:22:03,42.805,6.029,0.074,-0.022,0.012,104.0,105.0,101.0,13.3,1505.3,325.8,-0.7,1.8,2470.318,13.32,0.077,106.6
2020-09-17T03:25:03,42.805,6.029,0.063,-0.035,-0.014,103.0,105.0,102.0,13.3,1505.3,323.3,-0.7,1.8,2470.331,13.32,0.072,119.1
2020-09-17T03:28:03,42.805,6.029,0.086,-0.011,0.013,103.0,104.0,100.0,13.4,1505.3,324.8,-0.7,1.8,2470.322,13.32,0.086,97.3
2020-09-17T03:31:06,42.805,6.029,0.091,-0.013,0.029,104.0,105.0,101.0,13.4,1505.3,326.1,-0.7,1.8,2470.329,13.32,0.091,98.1
2020-09-17T03:34:03,42.805,6.029,0.061,-0.02,0.007,103.0,105.0,101.0,13.4,1505.3,325.6,-0.7,1.9,2470.269,13.32,0.064,108.1
2020-09-17T03:37:03,42.805,6.029,0.073,-0.026,-0.004,105.0,105.0,101.0,13.4,1505.3,327.1,-0.7,1.8,2470.304,13.32,0.077,109.6
2020-09-17T03:40:03,42.805,6.029,0.063,-0.022,0.008,103.0,107.0,102.0,13.3,1505.3,324.3,-0.7,1.9,2470.321,13.32,0.066,109.2
2020-09-17T03:43:03,42.805,6.029,0.055,-0.038,-0.021,103.0,103.0,101.0,13.3,1505.3,324.7,-0.7,1.8,2470.307,13.32,0.066,124.6
2020-09-17T03:46:05,42.805,6.029,0.069,-0.018,0.006,103.0,104.0,102.0,13.3,1505.3,327.7,-0.7,1.8,2470.306,13.32,0.071,104.6
2020-09-17T03:49:04,42.805,6.029,0.068,-0.027,0.007,104.0,106.0,100.0,13.4,1505.3,322.8,-0.7,1.8,2470.336,13.32,0.073,111.7
2020-09-17T03:52:03,42.805,6.029,0.058,-0.009,0.033,104.0,107.0,101.0,13.4,1505.3,326.6,-0.7,1.9,2470.299,13.32,0.058,98.8
2020-09-17T03:55:03,42.805,6.029,0.066,-0.016,0.026,103.0,105.0,101.0,13.4,1505.3,324.7,-0.7,1.9,2470.325,13.32,0.067,103.6
2020-09-17T03:58:03,42.805,6.029,0.055,-0.036,-0.028,104.0,105.0,101.0,13.4,1505.3,328.1,-0.6,1.8,2470.325,13.32,0.065,123.2
2020-09-17T04:04:03,42.805,6.029,0.066,0.005,0.009,103.0,104.0,101.0,13.4,1505.2,324.4,-0.7,1.8,2470.338,13.3,0.066,85.7
2020-09-17T04:07:04,42.805,6.029,0.071,-0.032,-0.008,104.0,104.0,102.0,13.3,1505.3,325.2,-0.7,1.8,2470.355,13.31,0.077,114.3
2020-09-17T04:10:03,42.805,6.029,0.057,-0.03,-0.003,104.0,105.0,102.0,13.4,1505.3,328.3,-0.7,1.8,2470.369,13.31,0.064,117.8
2020-09-17T04:13:03,42.805,6.029,0.055,-0.023,-0.003,103.0,106.0,101.0,13.3,1505.3,328.3,-0.7,1.8,2470.387,13.32,0.059,112.7
2020-09-17T04:16:03,42.805,6.029,0.089,-0.022,-0.013,103.0,106.0,101.0,13.3,1505.3,325.1,-0.7,1.9,2470.347,13.32,0.091,103.9
2020-09-17T04:19:03,42.805,6.029,0.082,-0.021,-0.009,102.0,105.0,101.0,13.4,1505.3,324.1,-0.7,1.8,2470.372,13.32,0.084,104.4
2020-09-17T04:22:03,42.805,6.029,0.072,-0.031,-0.013,103.0,104.0,102.0,13.4,1505.3,325.8,-0.7,1.8,2470.35,13.32,0.078,113.3
2020-09-17T04:25:03,42.805,6.029,0.077,-0.028,-0.002,103.0,105.0,102.0,13.4,1505.3,326.9,-0.7,1.8,2470.342,13.32,0.081,110.0
2020-09-17T04:28:03,42.805,6.029,0.065,-0.04,-0.007,103.0,105.0,102.0,13.3,1505.3,327.4,-0.7,1.8,2470.367,13.32,0.076,121.6
2020-09-17T04:31:03,42.805,6.029,0.104,-0.034,-0.002,104.0,104.0,101.0,13.3,1505.3,327.0,-0.7,1.8,2470.382,13.32,0.109,108.1
2020-09-17T04:34:03,42.805,6.029,0.081,-0.02,0.026,103.0,104.0,101.0,13.3,1505.3,322.4,-0.7,1.8,2470.365,13.32,0.083,103.9
2020-09-17T04:37:03,42.805,6.029,0.07,-0.014,-0.012,104.0,104.0,101.0,13.4,1505.3,326.5,-0.7,1.8,2470.381,13.32,0.071,101.3
2020-09-17T04:40:03,42.805,6.029,0.06,-0.005,-0.019,104.0,105.0,103.0,13.3,1505.3,324.0,-0.7,1.8,2470.376,13.32,0.06,94.8
2020-09-17T04:43:03,42.805,6.029,0.077,-0.044,-0.02,104.0,104.0,102.0,13.4,1505.3,324.4,-0.7,1.8,2470.348,13.32,0.088,119.7
2020-09-17T04:46:03,42.805,6.029,0.065,-0.014,0.013,104.0,107.0,101.0,13.4,1505.3,325.0,-0.7,1.8,2470.39,13.32,0.066,102.2
2020-09-17T04:49:03,42.805,6.029,0.071,-0.014,0.007,103.0,106.0,100.0,13.3,1505.3,324.5,-0.7,1.8,2470.38,13.32,0.072,101.2
2020-09-17T04:52:03,42.805,6.029,0.07,-0.029,0.006,103.0,104.0,102.0,13.4,1505.3,324.6,-0.7,1.8,2470.398,13.32,0.075,112.5
2020-09-17T04:55:03,42.805,6.029,0.087,-0.015,0.013,103.0,104.0,101.0,13.4,1505.3,322.7,-0.7,1.8,2470.389,13.32,0.088,99.8
2020-09-17T04:58:03,42.805,6.029,0.057,-0.029,-0.001,104.0,105.0,102.0,13.4,1505.3,326.9,-0.7,1.8,2470.373,13.32,0.063,117.0
2020-09-17T05:04:03,42.805,6.029,0.094,-0.026,0.031,104.0,105.0,101.0,13.4,1505.2,327.7,-0.7,1.8,2470.43,13.3,0.097,105.5
2020-09-17T05:07:03,42.805,6.029,0.055,-0.009,0.032,104.0,105.0,101.0,13.4,1505.3,323.6,-0.7,1.8,2470.454,13.31,0.055,99.3
2020-09-17T05:10:03,42.805,6.029,0.074,-0.018,0.017,104.0,105.0,101.0,13.4,1505.3,326.8,-0.7,1.8,2470.42,13.31,0.076,103.7
2020-09-17T05:13:03,42.805,6.029,0.091,-0.031,-0.032,103.0,104.0,101.0,13.3,1505.3,324.6,-0.7,1.8,2470.441,13.32,0.096,108.8
2020-09-17T05:16:03,42.805,6.029,0.054,-0.027,-0.02,104.0,106.0,101.0,13.4,1505.3,327.0,-0.7,1.9,2470.435,13.32,0.06,116.6
2020-09-17T05:19:03,42.805,6.029,0.084,-0.045,-0.008,104.0,105.0,102.0,13.3,1505.3,325.0,-0.7,1.8,2470.423,13.32,0.095,118.2
2020-09-17T05:22:03,42.805,6.029,0.078,-0.025,-0.032,103.0,105.0,102.0,13.4,1505.3,324.1,-0.7,1.9,2470.424,13.32,0.081,107.8
2020-09-17T05:25:03,42.805,6.029,0.047,0.0,0.034,103.0,103.0,101.0,13.3,1505.3,324.7,-0.7,1.8,2470.417,13.32,0.047,90.0
2020-09-17T05:28:03,42.805,6.029,0.045,-0.032,-0.007,104.0,104.0,102.0,13.3,1505.3,326.9,-0.7,1.8,2470.397,13.32,0.055,125.4
2020-09-17T05:31:03,42.805,6.029,0.065,-0.045,-0.004,104.0,104.0,101.0,13.3,1505.3,328.4,-0.7,1.8,2470.445,13.32,0.079,124.7
2020-09-17T05:34:03,42.805,6.029,0.059,-0.018,-0.005,103.0,104.0,101.0,13.4,1505.3,327.8,-0.7,1.9,2470.402,13.32,0.061,107.0
2020-09-17T05:37:03,42.805,6.029,0.057,-0.011,0.006,105.0,104.0,101.0,13.3,1505.3,327.8,-0.7,1.9,2470.395,13.32,0.058,100.9
2020-09-17T05:40:03,42.805,6.029,0.064,-0.051,-0.002,103.0,104.0,101.0,13.4,1505.3,327.8,-0.7,1.8,2470.438,13.32,0.081,128.6
2020-09-17T05:43:03,42.805,6.029,0.089,-0.037,0.033,104.0,104.0,101.0,13.4,1505.3,324.8,-0.6,1.8,2470.41,13.32,0.096,112.6
2020-09-17T05:46:03,42.805,6.029,0.04,-0.022,0.014,104.0,105.0,101.0,13.4,1505.3,324.8,-0.7,1.9,2470.425,13.32,0.045,118.8
2020-09-17T05:49:03,42.805,6.029,0.077,-0.016,-0.006,104.0,105.0,101.0,13.3,1505.3,322.9,-0.7,1.8,2470.444,13.32,0.078,101.7
2020-09-17T05:52:03,42.805,6.029,0.062,-0.036,-0.012,103.0,105.0,101.0,13.4,1505.3,325.2,-0.7,1.8,2470.424,13.32,0.071,120.1
2020-09-17T05:55:03,42.805,6.029,0.063,-0.034,0.008,102.0,104.0,102.0,13.4,1505.3,324.2,-0.7,1.8,2470.414,13.32,0.071,118.4
2020-09-17T05:58:03,42.805,6.029,0.076,-0.012,0.01,103.0,104.0,100.0,13.4,1505.3,324.6,-0.7,1.8,2470.433,13.32,0.076,99.0
2020-09-17T06:04:03,42.805,6.029,0.064,-0.019,-0.012,102.0,104.0,102.0,13.3,1505.2,324.4,-0.7,1.8,2470.465,13.3,0.066,106.5
2020-09-17T06:07:03,42.805,6.029,0.061,-0.05,-0.009,106.0,105.0,102.0,13.4,1505.3,324.7,-0.7,1.8,2470.433,13.31,0.078,129.3
2020-09-17T06:10:03,42.805,6.029,0.073,-0.025,0.034,104.0,103.0,102.0,13.4,1505.3,322.7,-0.7,1.9,2470.453,13.31,0.077,108.9
2020-09-17T06:13:03,42.805,6.029,0.088,-0.041,-0.016,103.0,103.0,101.0,13.3,1505.3,323.5,-0.7,1.8,2470.456,13.32,0.097,115.0
2020-09-17T06:16:03,42.805,6.029,0.087,-0.057,0.027,103.0,104.0,101.0,13.3,1505.3,324.7,-0.7,1.8,2470.495,13.32,0.104,123.2
2020-09-17T06:19:03,42.805,6.029,0.081,-0.036,0.016,104.0,103.0,100.0,13.3,1505.3,326.8,-0.7,1.8,2470.438,13.32,0.088,114.0
2020-09-17T06:22:03,42.805,6.029,0.105,-0.033,-0.009,103.0,104.0,101.0,13.3,1505.3,326.3,-0.7,1.8,2470.462,13.32,0.11,107.4
2020-09-17T06:25:03,42.805,6.029,0.082,-0.041,-0.005,103.0,103.0,101.0,13.4,1505.3,327.8,-0.7,1.8,2470.46,13.32,0.091,116.6
2020-09-17T06:28:04,42.805,6.029,0.083,-0.041,0.018,103.0,103.0,101.0,13.3,1505.3,326.2,-0.7,1.8,2470.432,13.32,0.092,116.3
2020-09-17T06:31:03,42.805,6.029,0.083,-0.034,0.014,104.0,105.0,101.0,13.3,1505.3,323.9,-0.7,1.8,2470.489,13.32,0.089,112.3
2020-09-17T06:34:03,42.805,6.029,0.067,-0.012,-0.006,103.0,104.0,101.0,13.4,1505.3,322.8,-0.7,1.8,2470.435,13.32,0.068,100.2
2020-09-17T06:37:03,42.805,6.029,0.072,-0.041,-0.013,103.0,104.0,101.0,13.4,1505.3,324.0,-0.7,1.8,2470.461,13.32,0.082,119.7
2020-09-17T06:40:04,42.805,6.029,0.061,-0.016,-0.01,102.0,104.0,100.0,13.3,1505.3,322.9,-0.7,1.8,2470.445,13.32,0.063,104.7
2020-09-17T06:43:03,42.805,6.029,0.111,-0.041,0.025,103.0,104.0,101.0,13.4,1505.3,323.2,-0.7,1.8,2470.515,13.32,0.118,110.3
2020-09-17T06:46:03,42.805,6.029,0.073,-0.023,-0.01,104.0,104.0,101.0,13.4,1505.3,326.0,-0.6,1.8,2470.461,13.32,0.076,107.5
2020-09-17T06:49:03,42.805,6.029,0.069,-0.05,0.001,102.0,103.0,101.0,13.4,1505.3,325.8,-0.7,1.8,2470.44,13.32,0.085,125.9
2020-09-17T06:52:03,42.805,6.029,0.058,-0.023,-0.017,104.0,103.0,101.0,13.4,1505.3,324.5,-0.7,1.8,2470.424,13.32,0.062,111.6
2020-09-17T06:55:03,42.805,6.029,0.057,-0.022,0.006,101.0,105.0,102.0,13.4,1505.3,325.0,-0.7,1.9,2470.442,13.32,0.061,111.1
2020-09-17T06:58:03,42.805,6.029,0.072,-0.012,0.005,103.0,105.0,102.0,13.4,1505.3,324.5,-0.7,1.8,2470.459,13.32,0.072,99.5
2020-09-17T07:04:04,42.805,6.029,0.1,-0.023,0.014,104.0,104.0,100.0,13.4,1505.2,325.6,-0.7,1.8,2470.477,13.3,0.102,103.0
2020-09-17T07:07:03,42.805,6.029,0.054,-0.024,0.0,104.0,103.0,101.0,13.4,1505.3,325.1,-0.7,1.8,2470.448,13.31,0.059,114.0
2020-09-17T07:10:04,42.805,6.029,0.072,-0.023,0.0,103.0,104.0,101.0,13.3,1505.3,324.5,-0.7,1.8,2470.499,13.31,0.075,107.7
2020-09-17T07:13:03,42.805,6.029,0.054,-0.031,0.009,104.0,105.0,101.0,13.4,1505.3,324.6,-0.7,1.9,2470.472,13.32,0.062,119.9
2020-09-17T07:16:03,42.805,6.029,0.078,-0.028,0.003,104.0,104.0,102.0,13.4,1505.3,325.0,-0.7,1.8,2470.45,13.32,0.082,109.7
2020-09-17T07:19:03,42.805,6.029,0.094,-0.035,0.014,102.0,103.0,102.0,13.4,1505.3,326.3,-0.7,1.8,2470.453,13.32,0.1,110.4
2020-09-17T07:22:03,42.805,6.029,0.077,-0.044,0.016,103.0,104.0,102.0,13.4,1505.3,326.6,-0.7,1.8,2470.438,13.32,0.088,119.7
2020-09-17T07:25:04,42.805,6.029,0.07,-0.039,0.017,104.0,104.0,101.0,13.4,1505.3,326.3,-0.7,1.8,2470.458,13.32,0.08,119.1
2020-09-17T07:28:03,42.805,6.029,0.074,-0.024,0.014,105.0,104.0,101.0,13.4,1505.3,323.8,-0.7,1.8,2470.446,13.32,0.077,108.0
2020-09-17T07:31:04,42.805,6.029,0.076,-0.02,0.025,104.0,104.0,101.0,13.4,1505.3,324.7,-0.7,1.8,2470.453,13.32,0.078,104.7
2020-09-17T07:34:03,42.805,6.029,0.071,-0.032,0.023,104.0,103.0,101.0,13.3,1505.3,325.3,-0.7,1.8,2470.45,13.32,0.077,114.3
2020-09-17T07:37:03,42.805,6.029,0.056,-0.029,0.006,105.0,105.0,101.0,13.4,1505.3,327.1,-0.7,1.8,2470.421,13.32,0.063,117.4
2020-09-17T07:40:03,42.805,6.029,0.112,-0.038,0.019,104.0,103.0,101.0,13.4,1505.3,324.6,-0.7,1.8,2470.427,13.32,0.118,108.7
2020-09-17T07:43:03,42.805,6.029,0.059,-0.047,-0.003,103.0,103.0,101.0,13.4,1505.3,328.5,-0.7,1.8,2470.416,13.32,0.075,128.5
2020-09-17T07:46:03,42.805,6.029,0.074,-0.026,0.0,103.0,106.0,101.0,13.3,1505.3,324.5,-0.7,1.8,2470.449,13.32,0.078,109.4
2020-09-17T07:49:03,42.805,6.029,0.062,-0.029,0.015,103.0,104.0,101.0,13.4,1505.3,322.7,-0.7,1.8,2470.442,13.32,0.068,115.1
2020-09-17T07:52:03,42.805,6.029,0.085,-0.034,0.02,104.0,104.0,101.0,13.4,1505.3,324.0,-0.7,1.8,2470.418,13.32,0.091,111.8
2020-09-17T07:55:03,42.805,6.029,0.075,-0.027,0.003,104.0,104.0,101.0,13.4,1505.3,323.6,-0.7,1.9,2470.461,13.32,0.079,109.8
2020-09-17T07:58:03,42.805,6.029,0.094,-0.022,0.012,104.0,104.0,101.0,13.4,1505.3,326.0,-0.7,1.8,2470.477,13.32,0.096,103.2
2020-09-17T08:04:03,42.805,6.029,0.059,-0.04,0.0,103.0,104.0,101.0,13.4,1505.2,323.4,-0.8,1.8,2470.515,13.3,0.071,124.1
2020-09-17T08:07:03,42.805,6.029,0.076,-0.026,-0.016,102.0,104.0,101.0,13.4,1505.3,325.5,-0.7,1.8,2470.464,13.31,0.08,108.9
2020-09-17T08:10:03,42.805,6.029,0.07,-0.028,-0.008,104.0,104.0,100.0,13.4,1505.3,325.8,-0.7,1.9,2470.439,13.31,0.075,111.8
2020-09-17T08:13:03,42.805,6.029,0.068,-0.021,-0.001,103.0,105.0,101.0,13.3,1505.3,325.6,-0.7,1.8,2470.455,13.32,0.071,107.2
2020-09-17T08:16:03,42.805,6.029,0.091,-0.035,0.006,105.0,103.0,101.0,13.4,1505.3,322.8,-0.7,1.8,2470.456,13.32,0.097,111.0
2020-09-17T08:19:03,42.805,6.029,0.076,-0.051,0.0,103.0,103.0,101.0,13.3,1505.3,325.4,-0.7,1.8,2470.434,13.32,0.091,123.9
2020-09-17T08:22:03,42.805,6.029,0.077,-0.033,-0.016,102.0,102.0,101.0,13.4,1505.3,324.3,-0.7,1.8,2470.446,13.32,0.083,113.2
2020-09-17T08:25:03,42.805,6.029,0.061,-0.019,-0.004,104.0,103.0,101.0,13.4,1505.3,324.4,-0.7,1.8,2470.45,13.32,0.063,107.3
2020-09-17T08:28:03,42.805,6.029,0.057,0.0,0.026,103.0,105.0,101.0,13.4,1505.3,328.1,-0.7,1.8,2470.433,13.32,0.057,90.0
2020-09-17T08:31:03,42.805,6.029,0.092,-0.008,0.025,103.0,104.0,102.0,13.3,1505.3,325.0,-0.7,1.8,2470.407,13.32,0.092,95.0
2020-09-17T08:34:04,42.805,6.029,0.062,-0.01,0.011,104.0,104.0,101.0,13.3,1505.3,325.6,-0.7,1.8,2470.435,13.32,0.062,99.2
2020-09-17T08:37:04,42.805,6.029,0.085,-0.051,-0.006,103.0,104.0,101.0,13.3,1505.3,325.6,-0.7,1.9,2470.438,13.32,0.099,121.0
2020-09-17T08:40:03,42.805,6.029,0.076,-0.048,0.002,104.0,104.0,100.0,13.4,1505.3,324.5,-0.7,1.8,2470.415,13.32,0.089,122.3
2020-09-17T08:43:03,42.805,6.029,0.08,-0.048,0.012,103.0,104.0,101.0,13.3,1505.3,324.3,-0.7,1.8,2470.397,13.32,0.093,121.0
2020-09-17T08:46:03,42.805,6.029,0.073,-0.022,0.027,103.0,104.0,102.0,13.4,1505.3,325.6,-0.7,1.8,2470.437,13.32,0.076,106.8
2020-09-17T08:49:03,42.805,6.029,0.083,-0.036,0.005,103.0,105.0,102.0,13.4,1505.3,324.6,-0.7,1.8,2470.427,13.32,0.09,113.4
2020-09-17T08:52:03,42.805,6.029,0.06,-0.047,-0.007,103.0,104.0,102.0,13.4,1505.3,327.0,-0.7,1.8,2470.402,13.32,0.076,128.1
2020-09-17T08:55:03,42.805,6.029,0.063,-0.014,0.004,103.0,105.0,101.0,13.3,1505.3,323.0,-0.7,1.8,2470.447,13.32,0.064,102.5
2020-09-17T08:58:03,42.805,6.029,0.079,-0.03,-0.019,104.0,103.0,101.0,13.4,1505.3,324.9,-0.7,1.8,2470.424,13.32,0.084,110.8
2020-09-17T09:04:03,42.805,6.029,0.058,-0.033,-0.006,104.0,104.0,102.0,13.4,1505.2,326.0,-0.7,1.8,2470.413,13.3,0.066,119.6
2020-09-17T09:07:03,42.805,6.029,0.094,-0.029,0.02,103.0,104.0,101.0,13.4,1505.3,323.4,-0.7,1.9,2470.455,13.31,0.098,107.1
2020-09-17T09:10:03,42.805,6.029,0.072,-0.032,0.002,104.0,104.0,101.0,13.4,1505.3,323.7,-0.7,1.8,2470.439,13.31,0.078,114.0
2020-09-17T09:13:03,42.805,6.029,0.086,-0.033,-0.01,103.0,104.0,102.0,13.4,1505.3,326.9,-0.7,1.8,2470.425,13.31,0.092,111.0
2020-09-17T09:16:03,42.805,6.029,0.088,-0.024,0.016,104.0,104.0,102.0,13.4,1505.3,323.2,-0.7,1.9,2470.396,13.32,0.091,105.3
2020-09-17T09:19:03,42.805,6.029,0.072,-0.036,-0.01,104.0,105.0,100.0,13.4,1505.3,323.8,-0.7,1.9,2470.409,13.32,0.08,116.6
2020-09-17T09:22:03,42.805,6.029,0.08,-0.031,-0.001,103.0,104.0,102.0,13.4,1505.3,328.0,-0.7,1.8,2470.377,13.32,0.085,111.2
2020-09-17T09:25:03,42.805,6.029,0.086,-0.037,0.008,102.0,104.0,102.0,13.4,1505.3,328.7,-0.7,1.8,2470.397,13.32,0.093,113.3
2020-09-17T09:28:03,42.805,6.029,0.068,-0.016,-0.01,104.0,103.0,102.0,13.4,1505.3,325.9,-0.7,1.8,2470.367,13.32,0.069,103.2
2020-09-17T09:31:03,42.805,6.029,0.059,-0.029,-0.002,103.0,106.0,101.0,13.4,1505.3,327.5,-0.7,1.8,2470.404,13.32,0.065,116.2
2020-09-17T09:34:03,42.805,6.029,0.079,-0.037,-0.005,104.0,104.0,101.0,13.4,1505.3,326.0,-0.7,1.8,2470.381,13.32,0.087,115.1
2020-09-17T09:37:03,42.805,6.029,0.081,-0.045,-0.019,103.0,103.0,100.0,13.3,1505.3,326.3,-0.7,1.8,2470.425,13.32,0.092,119.1
2020-09-17T09:40:03,42.805,6.029,0.056,-0.015,0.041,105.0,103.0,101.0,13.4,1505.3,326.6,-0.7,1.8,2470.365,13.32,0.057,105.0
2020-09-17T09:43:03,42.805,6.029,0.064,-0.026,-0.011,104.0,104.0,101.0,13.4,1505.3,324.5,-0.7,1.9,2470.325,13.32,0.069,112.1
2020-09-17T09:46:04,42.805,6.029,0.085,-0.025,0.038,105.0,103.0,101.0,13.4,1505.3,327.8,-0.7,1.9,2470.382,13.32,0.088,106.4
2020-09-17T09:49:03,42.805,6.029,0.086,-0.028,0.012,104.0,105.0,101.0,13.4,1505.3,323.0,-0.7,1.9,2470.364,13.32,0.09,108.0
2020-09-17T09:52:03,42.805,6.029,0.062,-0.011,0.024,103.0,104.0,102.0,13.4,1505.3,326.8,-0.7,1.8,2470.37,13.32,0.062,100.1
2020-09-17T09:55:03,42.805,6.029,0.07,-0.021,-0.004,105.0,105.0,101.0,13.4,1505.3,327.6,-0.7,1.8,2470.377,13.32,0.073,106.7
2020-09-17T09:58:03,42.805,6.029,0.086,-0.033,-0.011,102.0,104.0,101.0,13.4,1505.3,323.0,-0.7,1.8,2470.411,13.32,0.092,111.0